TimeCDT,TemperatureF,Dew PointF,Humidity,Sea Level PressureIn,VisibilityMPH,Wind Direction,Wind SpeedMPH,Gust SpeedMPH,PrecipitationIn,Events,Conditions,WindDirDegrees,DateUTC
12:53 AM,37.9,35.1,89,30.19,10.0,Calm,Calm,-,N/A,,Clear,0,2013-04-05 05:53:00
1:53 AM,37.0,34.0,89,30.19,10.0,Calm,Calm,-,N/A,,Clear,0,2013-04-05 06:53:00
2:53 AM,37.0,34.0,89,30.18,9.0,Calm,Calm,-,N/A,,Clear,0,2013-04-05 07:53:00
3:53 AM,36.0,33.1,89,30.17,7.0,Calm,Calm,-,0.00,,Clear,0,2013-04-05 08:53:00
4:53 AM,35.1,33.1,92,30.19,7.0,Calm,Calm,-,N/A,,Clear,0,2013-04-05 09:53:00
5:53 AM,36.0,34.0,93,30.19,7.0,WNW,6.9,-,N/A,,Clear,300,2013-04-05 10:53:00
6:53 AM,34.0,32.0,92,30.19,6.0,NNW,3.5,-,N/A,,Clear,340,2013-04-05 11:53:00
7:53 AM,35.1,34.0,96,30.20,5.0,Calm,Calm,-,N/A,,Clear,0,2013-04-05 12:53:00
8:53 AM,39.9,37.9,93,30.21,7.0,Calm,Calm,-,N/A,,Clear,0,2013-04-05 13:53:00
9:53 AM,46.0,39.0,76,30.21,10.0,SW,5.8,-,N/A,,Clear,230,2013-04-05 14:53:00
10:53 AM,51.1,43.0,74,30.21,10.0,South,8.1,-,N/A,,Clear,190,2013-04-05 15:53:00
11:53 AM,55.0,42.1,62,30.19,10.0,SSW,12.7,-,N/A,,Clear,200,2013-04-05 16:53:00
12:53 PM,59.0,44.1,58,30.15,10.0,South,11.5,-,N/A,,Clear,170,2013-04-05 17:53:00
1:53 PM,61.0,45.0,56,30.10,10.0,SSE,11.5,-,N/A,,Clear,150,2013-04-05 18:53:00
2:53 PM,64.0,45.0,50,30.06,10.0,SSE,15.0,20.7,N/A,,Clear,150,2013-04-05 19:53:00
3:53 PM,64.9,45.0,48,30.02,10.0,South,15.0,-,N/A,,Clear,170,2013-04-05 20:53:00
4:53 PM,66.0,44.1,45,29.97,10.0,SSE,17.3,23.0,N/A,,Clear,160,2013-04-05 21:53:00
5:53 PM,66.0,45.0,47,29.94,10.0,SSE,19.6,-,N/A,,Clear,150,2013-04-05 22:53:00
6:53 PM,64.9,45.0,48,29.93,10.0,SE,17.3,-,N/A,,Clear,140,2013-04-05 23:53:00
7:53 PM,62.1,44.1,52,29.92,10.0,SE,11.5,-,N/A,,Clear,140,2013-04-06 00:53:00
8:53 PM,57.9,46.9,67,29.92,10.0,SE,10.4,-,N/A,,Clear,130,2013-04-06 01:53:00
9:53 PM,57.0,46.0,67,29.91,10.0,SSE,11.5,-,N/A,,Clear,150,2013-04-06 02:53:00
10:53 PM,55.0,46.0,72,29.90,10.0,SE,12.7,-,N/A,,Clear,130,2013-04-06 03:53:00
11:53 PM,55.0,46.0,72,29.86,10.0,SE,13.8,-,N/A,,Clear,140,2013-04-06 04:53:00